Location: Launois
(49.6535°N, 4.5395°E)
Time: 03:01:14
(UTC+00:00)

Cosmos 2082 Rocket - Pass Details

Date: 23 May 2024
Orbit: 832 x 853 km, 71.0° (Epoch: 17 June)

Event Time Altitude Azimuth Distance (km) Brightness Sun altitude
Exits shadow 00:06:58 32° 159° (SSE) 1,427 2.9 -19.4°
Maximum altitude 00:09:06 46° 110° (ESE) 1,131 2.7 -19.4°
Drops below altitude 10° 00:14:32 10° 38° (NE) 2,492 5.5 -19.3°
Sets 00:17:05 0° 33° (NNE) 3,431 6.6 -19.2°
